EDT,Max TemperatureF,Mean TemperatureF,Min TemperatureF,Max Dew PointF,MeanDew PointF,Min DewpointF,Max Humidity, Mean Humidity, Min Humidity, Max Sea Level PressureIn, Mean Sea Level PressureIn, Min Sea Level PressureIn, Max VisibilityMiles, Mean VisibilityMiles, Min VisibilityMiles, Max Wind SpeedMPH, Mean Wind SpeedMPH, Max Gust SpeedMPH,PrecipitationIn, CloudCover, Events, WindDirDegrees
2013-3-1,32,29,26,27,22,17,85,72,58,30.01,29.92,29.83,10,9,2,17,10,24,T,8,Snow,307
2013-3-2,29,27,24,21,19,17,88,76,63,30.00,29.95,29.89,10,7,2,15,8,21,T,8,Snow,302
2013-3-3,27,25,22,22,18,14,88,73,57,30.06,29.97,29.92,10,6,1,17,9,22,T,8,Snow,282
2013-3-4,38,30,22,16,14,12,77,59,40,30.16,30.10,30.03,10,10,10,16,7,22,0.00,3,,261
2013-3-5,46,35,24,31,20,13,74,51,27,30.11,29.83,29.61,10,8,1,30,10,38,0.01,4,Snow,85
2013-3-6,40,36,31,30,29,27,100,80,59,30.14,29.82,29.60,10,5,0,22,8,29,0.09,8,Fog-Snow,72
2013-3-7,43,37,31,29,27,25,92,73,53,30.33,30.24,30.12,10,9,6,17,9,24,0.00,7,,302
2013-3-8,39,34,28,26,24,21,78,66,54,30.45,30.40,30.32,10,10,10,16,8,21,0.00,6,,327
2013-3-9,56,40,24,27,24,22,92,61,30,30.44,30.31,30.16,10,9,5,12,5,17,0.00,0,,108
2013-3-10,71,59,46,31,27,22,39,31,22,30.16,30.06,29.96,10,10,10,17,8,23,0.00,2,,153
2013-3-11,62,53,44,49,35,28,92,62,32,29.96,29.82,29.67,10,9,3,29,13,38,0.38,4,Rain,181
2013-3-12,44,39,34,41,31,26,96,80,64,30.02,29.90,29.78,10,9,4,16,11,30,0.02,8,Rain-Snow,253
2013-3-13,34,30,26,30,25,16,92,73,54,30.19,30.00,29.91,10,5,0,26,13,36,0.02,8,Fog-Snow,258
2013-3-14,40,31,22,19,16,14,77,57,37,30.28,30.20,30.14,10,10,9,22,11,31,0.00,3,,272
2013-3-15,51,40,28,34,25,17,63,53,42,30.14,29.97,29.84,10,10,10,18,9,24,0.01,4,Rain,241
2013-3-16,45,38,31,40,37,27,100,90,79,29.99,29.75,29.62,10,4,1,18,6,24,0.01,8,Rain,46
2013-3-17,36,33,29,27,23,21,85,71,56,30.21,30.14,30.01,10,10,10,13,7,24,0.00,6,,31
2013-3-18,47,39,31,45,33,22,93,78,63,30.13,29.86,29.68,10,7,2,23,13,32,0.45,8,Rain,117
2013-3-19,47,39,30,45,26,16,96,68,40,30.00,29.83,29.69,10,10,5,36,18,47,0.01,6,Rain,259
2013-3-20,40,32,24,17,14,10,74,53,32,30.00,29.94,29.84,10,10,10,29,13,41,0.00,3,,268
2013-3-21,29,23,17,17,12,4,77,61,44,29.96,29.91,29.85,10,9,2,21,12,28,T,7,Snow,274
2013-3-22,39,32,24,19,16,14,81,61,40,30.04,29.99,29.93,10,10,10,20,8,28,0.00,5,,266
2013-3-23,48,36,24,21,18,15,75,52,28,30.06,30.03,30.00,10,10,8,15,7,26,0.00,0,,289
2013-3-24,41,34,26,30,25,18,89,65,41,30.00,29.68,29.47,10,8,0,21,12,26,0.02,5,Fog-Snow,76
2013-3-25,35,33,31,32,31,28,100,95,89,29.78,29.51,29.40,10,3,0,20,8,25,0.21,8,Fog-Rain-Snow,215
2013-3-26,40,36,31,31,29,27,92,76,59,30.12,29.95,29.79,10,9,4,18,8,26,T,8,Snow,293
2013-3-27,42,37,32,29,26,20,85,63,41,30.21,30.14,30.07,10,9,2,22,12,30,T,8,Snow,269
2013-3-28,44,39,33,26,25,24,69,59,49,30.29,30.23,30.17,10,10,10,18,7,24,0.00,8,,279
2013-3-29,53,45,36,27,23,18,64,45,26,30.29,30.25,30.19,10,10,10,17,6,26,0.00,5,,271
2013-3-30,55,42,28,26,19,14,69,45,20,30.27,30.17,30.02,10,10,10,14,3,17,0.00,0,,127
2013-3-31,48,46,43,45,38,17,93,63,33,30.00,29.80,29.73,10,8,2,16,7,21,0.06,6,Rain,214